Simultaneous Nadir Overpasses (SNOs) Predictions

Prediction of SNOs between LANDSAT-8 and METOP-A Satellite Orbit:

Table of predicted SNOs for the next 14.0 days since TLE Epoch: 7/6/2018
Index Date (LANDSAT-8) Time (LANDSAT-8) Lat,Lon (LANDSAT-8) SZA (LANDSAT-8 ) Date (METOP-A) Time (METOP-A) Lat,Lon (METOP-A) SZA (METOP-A ) Distance(km) Time Diff (sec)
1 07/08/2018 08:07:25 -81.37, -77.69 118.68 07/08/2018 08:06:50 -81.37, -77.69 118.69 0.70 35
2 07/08/2018 08:56:50 81.39, 90.46 61.40 07/08/2018 08:57:29 81.38, 90.42 61.41 1.05 39
3 07/11/2018 03:41:41 -81.38, -11.01 118.31 07/11/2018 03:41:06 -81.38, -10.88 118.31 2.21 35
4 07/11/2018 04:31:07 81.38, 156.73 61.71 07/11/2018 04:31:46 81.38, 156.79 61.74 1.13 39
5 07/13/2018 23:15:57 -81.37, 55.26 117.95 07/13/2018 23:15:23 -81.37, 55.14 117.98 2.10 34
6 07/14/2018 00:05:22 81.39,-136.64 62.12 07/14/2018 00:06:01 81.39,-136.45 62.16 3.32 39
7 07/16/2018 18:50:13 -81.38, 121.89 117.49 07/16/2018 18:49:39 -81.38, 121.93 117.50 0.62 34
8 07/16/2018 19:39:39 81.38, -70.42 62.53 07/16/2018 19:40:19 81.38, -70.48 62.54 1.05 40
9 07/19/2018 14:24:30 -81.37,-171.88 117.03 07/19/2018 14:23:57 -81.37,-172.07 117.07 3.16 33




NCC Satellite Simultaneous Nadir Overpasses (SNOs) Prediction Service
